Upington, South Africa

3:22 PM SAST on July 23, 2017 (GMT +0200)
Upington

Weather History for FAUP - February, 2013

Change the Weather History Date:

Sunday, February 10, 2013

  Actual Average Record
Temperature  
Mean Temperature 78 °F -  
Max Temperature 93 °F 92 °F 105 °F (1998)
Min Temperature 64 °F 64 °F 59 °F (2014)
Cooling Degree Days 14    
Growing Degree Days 28 (Base 50)    
Moisture  
Dew Point 38 °F    
Average Humidity 26    
Maximum Humidity 59    
Minimum Humidity 4    
Precipitation  
Precipitation 0.00 in 0.05 in - ()
Sea Level Pressure  
Sea Level Pressure 29.89 in    
Wind  
Wind Speed 7 mph ()    
Max Wind Speed 17 mph    
Max Gust Speed 28 mph    
Visibility 6.2 miles    
Events      
Averages and records for this station are not official NWS values.
T = Trace of Precipitation, MM = Missing Value Source: Averaged Metar Reports

Daily Weather History Graph

Daily Weather History Graph

Search for Another Location

Airport or City:

Trip Planner

Search our weather history database for the weather conditions in past years. The results will help you decide how hot, cold, wet, or windy it might be!

Date:

Astronomy

Feb. 10, 2013 Rise Set
Actual Time 6:13 AM SAST 7:24 PM SAST
Civil Twilight 5:48 AM SAST 7:49 PM SAST
Nautical Twilight 5:19 AM SAST 8:18 PM SAST
Astronomical Twilight 4:48 AM SAST 8:48 PM SAST
Moon 6:14 AM SAST (2/10) 7:19 PM SAST (2/10)
Length of Visible Light 14h 00m
Length of Day
13h 10m
New Moon, 0% of the Moon is Illuminated
Feb 10
New Moon
Feb 17
First Quarter
Feb 25
Full
Mar 4
Last Quarter
Mar 11
New

Hourly Weather History & Observations

Time (SAST) Temp. Dew Point Humidity Pressure Visibility Wind Dir Wind Speed Gust Speed Precip Events Conditions
12:00 AM 73.4 °F 30.2 °F 20% 29.89 in - West 2.3 mph - N/A   Unknown
1:00 AM 71.6 °F 32.0 °F 23% 29.89 in - SW 4.6 mph - N/A   Unknown
2:00 AM 70 °F 35 °F 17%  in 25 mi SSW 4.6 mph - -  
2:00 AM 69.8 °F 33.8 °F 27% 29.89 in - SSW 4.6 mph - N/A   Unknown
3:00 AM 66.2 °F 37.4 °F 35% 29.89 in - WSW 5.8 mph - N/A   Clear
4:00 AM 66.2 °F 46.4 °F 49% 29.86 in - WSW 5.8 mph - N/A   Clear
5:00 AM 67 °F 51 °F 45%  in 25 mi WSW 6.9 mph - -  
5:00 AM 66.2 °F 50.0 °F 56% 29.89 in - WSW 5.8 mph - N/A   Clear
6:00 AM 64.4 °F 50.0 °F 59% 29.89 in - WSW 4.6 mph - N/A   Unknown
7:00 AM 68.0 °F 50.0 °F 52% 29.92 in - SW 5.8 mph - N/A   Clear
7:42 AM 71.6 °F 51.8 °F 50% 29.92 in - SW 10.4 mph - N/A   Clear
8:00 AM 73 °F 52 °F 36%  in 25 mi SSW 11.5 mph - -  
8:00 AM 71.6 °F 51.8 °F 50% 29.92 in - SSW 10.4 mph - N/A   Clear
9:00 AM 75.2 °F 48.2 °F 38% 29.92 in - SSW 9.2 mph - N/A   Clear
10:00 AM 77.0 °F 46.4 °F 34% 29.95 in - SSW 8.1 mph - N/A   Clear
10:49 AM 80.6 °F 44.6 °F 28% 29.95 in 6.2 mi SSW 6.9 mph - N/A   Partly Cloudy
11:00 AM 83 °F 45 °F 17%  in 25 mi WSW 6.9 mph - -   Scattered Clouds
11:00 AM 82.4 °F 44.6 °F 26% 29.95 in 6.2 mi WSW 6.9 mph - N/A   Partly Cloudy
12:00 PM 84.2 °F 41.0 °F 22% 29.92 in 6.2 mi SW 6.9 mph 18.4 mph N/A   Partly Cloudy
1:00 PM 87.8 °F 35.6 °F 16% 29.89 in 6.2 mi West 8.1 mph - N/A   Partly Cloudy
2:00 PM 92 °F 33 °F 6%  in 25 mi West 8.1 mph - -   Scattered Clouds
2:00 PM 91.4 °F 32.0 °F 12% 29.86 in 6.2 mi West 8.1 mph - N/A   Partly Cloudy
3:00 PM 93.2 °F 32.0 °F 11% 29.86 in 6.2 mi WNW 10.4 mph - N/A   Partly Cloudy
4:00 PM 91.4 °F 32.0 °F 12% 29.83 in 6.2 mi West 15.0 mph 27.6 mph N/A   Partly Cloudy
5:00 PM 91 °F 26 °F 4%  in 25 mi West 16.1 mph - -   Scattered Clouds
5:00 PM 91.4 °F 26.6 °F 10% 29.83 in 6.2 mi West 16.1 mph - N/A   Partly Cloudy
6:00 PM 89.6 °F 28.4 °F 11% 29.83 in 6.2 mi WNW 17.3 mph - N/A   Partly Cloudy
7:00 PM 87.8 °F 26.6 °F 11% 29.83 in 6.2 mi WSW 15.0 mph - N/A   Partly Cloudy
8:00 PM 83 °F 24 °F 5%  in 25 mi SW 10.4 mph - -   Scattered Clouds
8:00 PM 82.4 °F 24.8 °F 12% 29.83 in 6.2 mi SW 10.4 mph - N/A   Partly Cloudy
9:00 PM 80.6 °F 32.0 °F 17% 29.86 in - SW 11.5 mph - N/A   Unknown
10:00 PM 77.0 °F 33.8 °F 21% 29.89 in - SW 8.1 mph - N/A   Unknown
11:00 PM 75 °F 36 °F 15%  in - WSW 6.9 mph - -  
11:00 PM 73.4 °F 35.6 °F 25% 29.92 in - WSW 5.8 mph - N/A   Unknown